Home   Weather   Town of New Fairfield   Past weeks
Flag for USA

Past Weather in Town of New Fairfield, Connecticut, USA — Yesterday and Last 2 Weeks

Now
30 °F

Clear.


Feels Like: 25 °F
Forecast: 34 / 19 °F
Wind: 5 mph from Northwest

Location: Danbury Municipal Airport

Current Time: Dec 7, 2019 at 3:55:00 am

Latest Report: Dec 7, 2019 at 2:53 am


Visibility: 10 mi

Pressure: 30.21 "Hg

Humidity: 56%

Dew Point: 16 °F

Location of Town of New FairfieldLocation

Past Weather in Town of New Fairfield — Graph

°F

Town of New Fairfield Temperature Yesterday

Maximum temperature yesterday: 42 °F (at 4:53 pm)
Minimum temperature yesterday: 31 °F (at 1:53 am)
Average temperature yesterday: 36 °F

High & Low Weather Summary for the Past Weeks

 TemperatureHumidityPressure
High60 °F (Nov 26, 1:53 pm)100% (Nov 26, 6:53 am)30.24 "Hg (Nov 26, 6:53 am)
Low21 °F (Dec 1, 4:53 am)25% (Nov 30, 1:53 pm)29.23 "Hg (Nov 24, 11:34 am)
Average36 °F73%29.78 "Hg
* Reported Nov 22 1:53 am — Dec 7 1:53 am, Town of New Fairfield. Weather by CustomWeather, © 2019

Note: Actual official high and low records may vary slightly from our data, if they occured in-between our weather recording intervals... More about our weather records

Town of New Fairfield Weather History for the Previous 24 Hours

Scroll right to see more
 ConditionsComfort  
Time TempWeatherWind HumidityBarometerVisibility
1:53 am
Sat, Dec 7
31 °FClear.6 mph61%30.18 "Hg10 mi
12:53 am32 °FClear.6 mph61%30.15 "Hg10 mi
11:53 pm
Fri, Dec 6
34 °FClear.10 mph59%30.13 "Hg10 mi
10:53 pm36 °FClear.7 mph54%30.11 "Hg10 mi
9:53 pm38 °FPassing clouds.6 mph55%30.08 "Hg10 mi
8:53 pm40 °FClear.9 mph55%30.04 "Hg10 mi
7:53 pm41 °FPassing clouds.10 mph60%30.01 "Hg10 mi
6:53 pm42 °FMostly cloudy.9 mph57%29.97 "Hg10 mi
5:53 pm42 °FMostly cloudy.8 mph55%29.95 "Hg10 mi
4:53 pm42 °FOvercast.6 mph55%29.93 "Hg10 mi
3:53 pm40 °FMostly cloudy.8 mph63%29.91 "Hg10 mi
2:53 pm41 °FOvercast.9 mph55%29.93 "Hg10 mi
1:53 pm40 °FOvercast.12 mph58%29.95 "Hg10 mi
12:53 pm40 °FOvercast.10 mph55%29.98 "Hg10 mi
11:53 am39 °FOvercast.10 mph55%30.02 "Hg10 mi
10:53 am37 °FMostly cloudy.6 mph57%30.06 "Hg10 mi
9:53 am35 °FPartly sunny.9 mph59%30.10 "Hg10 mi
8:53 am32 °FPartly sunny.5 mph64%30.11 "Hg10 mi
7:53 am32 °FSunny.6 mph61%30.12 "Hg10 mi
6:53 am31 °FPassing clouds.5 mph64%30.12 "Hg10 mi
5:53 am31 °FClear.5 mph61%30.11 "Hg10 mi
4:53 am31 °FClear.5 mph59%30.11 "Hg10 mi
3:53 am31 °FClear.8 mph59%30.11 "Hg10 mi
Weather by CustomWeather, © 2019

See weather overview

Advertising